Location: �terpigny
(49.8910°N, 2.9249°E)
Time: 17:51:55
(UTC+00:00)

SL-16 R/B - Pass Details

Date: 24 October 2021
Orbit: 842 x 846 km, 71.0° (Epoch: 07 December)

Event Time Altitude Azimuth Distance (km) Brightness Sun altitude
Rises 19:36:41 0° 244° (WSW) 3,396 6.0 -29.0°
Reaches altitude 10° 19:39:26 10° 255° (WSW) 2,465 5.3 -29.4°
Maximum altitude 19:44:21 29° 315° (NW) 1,495 3.9 -30.2°
Drops below altitude 10° 19:49:17 10° 15° (NNE) 2,478 4.7 -30.9°
Enters shadow 19:49:30 - 17° (NNE) 2,546 4.7 -30.9°
